Preview of NWS' New Version of Forecast
This preview is not operational and should not be used for support decisions.

Regional Weather Roundup (RWR)

Issued by National Weather Service (NWS)

                            
000
ASUS43 KBIS 212202
RWRND 

NORTH DAKOTA REGIONAL WEATHER ROUNDUP
NATIONAL WEATHER SERVICE BISMARCK ND
500 PM CDT SAT SEP 21 2019

NOTE: "FAIR" INDICATES FEW OR NO CLOUDS BELOW 12,000 FEET WITH NO
SIGNIFICANT WEATHER AND/OR OBSTRUCTIONS TO VISIBILITY.


NDZ001>003-009>011-017-212300-
NORTHWEST NORTH DAKOTA
  
CITY           SKY/WX    TMP DP  RH WIND       PRES   REMARKS
WILLISTON      CLOUDY    62  45  53 NW14      29.84R                  
MINOT          LGT RAIN  54  52  93 NW15      29.75R                  
$$
 
NDZ018>021-031>035-040>046-212300-
SOUTHWEST NORTH DAKOTA
  
CITY           SKY/WX    TMP DP  RH WIND       PRES   REMARKS
BISMARCK       CLOUDY    63  55  75 W13       29.77R                  
DICKINSON      CLOUDY    56  49  77 NW17      29.83R                  
GARRISON         N/A     58  49  72 NW9       29.77R                  
HETTINGER ARPT CLOUDY    58  48  69 NW20G31   29.86R                  
$$
 
NDZ004>008-012>016-024-026-027-054-212300-
NORTHEAST NORTH DAKOTA
  
CITY           SKY/WX    TMP DP  RH WIND       PRES   REMARKS
GRAND FORKS    PTSUNNY   68  60  75 W17G28    29.62R                  
DEVILS LAKE    PTSUNNY   61  54  77 NW18      29.67R                  
$$
 
NDZ022-023-025-028>030-036>039-047>053-212300-
SOUTHEAST NORTH DAKOTA
  
CITY           SKY/WX    TMP DP  RH WIND       PRES   REMARKS
FARGO          SUNNY     78  61  55 SW15      29.62S                  
JAMESTOWN      MOSUNNY   67  56  67 NW12      29.69S                  
$$